Weather History for Muscatine, IA

Change the Weather History Date:

Wednesday, February 13, 2013

  Actual Average Record
Temperature  
Mean Temperature 37 °F -  
Max Temperature 46 °F 36 °F 60 °F (1990)
Min Temperature 28 °F 17 °F -13 °F (1988)
Degree Days  
Heating Degree Days 28    
Moisture  
Dew Point 26 °F    
Average Humidity 67    
Maximum Humidity 80    
Minimum Humidity 46    
Precipitation  
Precipitation 0.00 in - - ()
Sea Level Pressure  
Sea Level Pressure 29.79 in    
Wind  
Wind Speed 5 mph (WSW)    
Max Wind Speed 13 mph    
Max Gust Speed 16 mph    
Visibility 10 miles    
Events      
Averages and records for this station are not official NWS values.
T = Trace of Precipitation, MM = Missing Value Source: NWS Daily Summary

Daily Weather History Graph

Daily Weather History Graph

Search for Another Location

Airport:

Trip Planner

Search our weather history database for the weather conditions in past years. The results will help you decide how hot, cold, wet, or windy it might be!

Date:

Astronomy

Feb. 13, 2013 Rise Set
Actual Time 7:01 AM CST 5:36 PM CST
Civil Twilight 6:33 AM CST 6:04 PM CST
Nautical Twilight 6:00 AM CST 6:37 PM CST
Astronomical Twilight 5:28 AM CST 7:09 PM CST
Moon 8:28 AM CST (2/13) 9:42 PM CST (2/13)
Length of Visible Light 11h 31m
Length of Day
10h 34m
Waxing Crescent, 14% of the Moon is Illuminated
Feb 13
Waxing Crescent
Feb 17
First Quarter
Feb 25
Full
Mar 4
Last Quarter
Mar 11
New

Hourly Weather History & Observations

Time (CST) Temp. Windchill Dew Point Humidity Pressure Visibility Wind Dir Wind Speed Gust Speed Precip Events Conditions
12:15 AM 32.0 °F 27.5 °F 24.8 °F 75% 29.89 in 10.0 mi SW 4.6 mph - N/A   Clear
12:35 AM 32.0 °F 25.6 °F 24.8 °F 75% 29.89 in 10.0 mi SW 6.9 mph - N/A   Clear
12:55 AM 32.0 °F 24.2 °F 24.8 °F 75% 29.88 in 10.0 mi SW 9.2 mph - N/A   Clear
1:15 AM 32.0 °F 24.2 °F 24.8 °F 75% 29.87 in 10.0 mi SW 9.2 mph - N/A   Clear
1:35 AM 30.2 °F 25.4 °F 24.8 °F 80% 29.87 in 10.0 mi SW 4.6 mph - N/A   Clear
1:55 AM 28.4 °F - 23.0 °F 80% 29.86 in 10.0 mi Calm Calm - N/A   Clear
2:15 AM 30.2 °F - 23.0 °F 75% 29.86 in 10.0 mi Calm Calm - N/A   Clear
2:35 AM 30.2 °F - 23.0 °F 75% 29.85 in 10.0 mi Calm Calm - N/A   Clear
2:55 AM 30.2 °F 26.7 °F 23.0 °F 75% 29.84 in 10.0 mi South 3.5 mph - N/A   Clear
3:15 AM 30.2 °F - 23.0 °F 75% 29.83 in 10.0 mi Calm Calm - N/A   Clear
3:35 AM 30.2 °F 24.3 °F 23.0 °F 75% 29.83 in 10.0 mi WSW 5.8 mph - N/A   Clear
3:55 AM 30.2 °F 23.4 °F 23.0 °F 75% 29.82 in 10.0 mi WSW 6.9 mph - N/A   Clear
4:15 AM 30.2 °F 21.9 °F 21.2 °F 69% 29.82 in 10.0 mi WSW 9.2 mph - N/A   Clear
4:35 AM 30.2 °F 22.6 °F 21.2 °F 69% 29.82 in 10.0 mi WSW 8.1 mph - N/A   Clear
4:55 AM 28.4 °F 19.7 °F 21.2 °F 74% 29.81 in 10.0 mi WSW 9.2 mph - N/A   Clear
5:15 AM 28.4 °F 20.4 °F 21.2 °F 74% 29.81 in 10.0 mi WSW 8.1 mph - N/A   Clear
5:35 AM 28.4 °F 22.2 °F 21.2 °F 74% 29.80 in 10.0 mi WSW 5.8 mph - N/A   Clear
5:55 AM 28.4 °F - 21.2 °F 74% 29.80 in 10.0 mi Calm Calm - N/A   Clear
6:15 AM 28.4 °F 23.3 °F 21.2 °F 74% 29.79 in 10.0 mi WSW 4.6 mph - N/A   Clear
6:35 AM 28.4 °F 24.6 °F 21.2 °F 74% 29.80 in 10.0 mi West 3.5 mph - N/A   Clear
6:55 AM 28.4 °F - 21.2 °F 74% 29.80 in 10.0 mi Calm Calm - N/A   Clear
7:15 AM 28.4 °F - 21.2 °F 74% 29.80 in 10.0 mi Calm Calm - N/A   Clear
7:35 AM 28.4 °F - 21.2 °F 74% 29.80 in 7.0 mi Calm Calm - N/A   Clear
7:55 AM 28.4 °F 23.3 °F 23.0 °F 80% 29.81 in 7.0 mi West 4.6 mph - N/A   Clear
8:15 AM 30.2 °F 22.6 °F 24.8 °F 80% 29.81 in 7.0 mi West 8.1 mph - N/A   Clear
8:35 AM 30.2 °F 23.4 °F 24.8 °F 80% 29.81 in 10.0 mi West 6.9 mph - N/A   Clear
8:55 AM 32.0 °F 27.5 °F 24.8 °F 75% 29.81 in 10.0 mi West 4.6 mph - N/A   Clear
9:15 AM 33.8 °F 30.8 °F 26.6 °F 75% 29.81 in 10.0 mi West 3.5 mph - N/A   Clear
9:35 AM 35.6 °F 31.7 °F 26.6 °F 70% 29.81 in 10.0 mi WNW 4.6 mph - N/A   Clear
9:55 AM 35.6 °F 32.8 °F 26.6 °F 70% 29.81 in 10.0 mi WNW 3.5 mph - N/A   Clear
10:15 AM 37.4 °F 32.8 °F 26.6 °F 65% 29.81 in 10.0 mi West 5.8 mph - N/A   Clear
10:35 AM 37.4 °F 31.4 °F 24.8 °F 60% 29.81 in 10.0 mi WNW 8.1 mph - N/A   Clear
10:55 AM 37.4 °F 34.9 °F 24.8 °F 60% 29.81 in 10.0 mi West 3.5 mph - N/A   Clear
11:15 AM 39.2 °F 35.9 °F 24.8 °F 56% 29.81 in 10.0 mi West 4.6 mph - N/A   Clear
11:35 AM 39.2 °F 35.0 °F 24.8 °F 56% 29.80 in 10.0 mi West 5.8 mph - N/A   Clear
11:55 AM 39.2 °F 33.6 °F 26.6 °F 61% 29.80 in 10.0 mi West 8.1 mph - N/A   Clear
12:15 PM 41.0 °F 33.9 °F 26.6 °F 57% 29.79 in 10.0 mi WSW 12.7 mph - N/A   Clear
12:35 PM 41.0 °F 34.7 °F 26.6 °F 57% 29.79 in 10.0 mi West 10.4 mph - N/A   Clear
12:55 PM 41.0 °F 34.7 °F 26.6 °F 57% 29.78 in 10.0 mi WSW 10.4 mph - N/A   Clear
1:15 PM 41.0 °F 34.7 °F 28.4 °F 61% 29.78 in 10.0 mi West 10.4 mph - N/A   Clear
1:35 PM 42.8 °F 37.5 °F 28.4 °F 57% 29.77 in 10.0 mi West 9.2 mph 16.1 mph N/A   Clear
1:55 PM 42.8 °F 36.6 °F 28.4 °F 57% 29.77 in 10.0 mi West 11.5 mph - N/A   Clear
2:15 PM 42.8 °F 38.0 °F 28.4 °F 57% 29.77 in 10.0 mi West 8.1 mph - N/A   Clear
2:35 PM 44.6 °F 40.2 °F 28.4 °F 53% 29.77 in 10.0 mi West 8.1 mph - N/A   Clear
2:55 PM 44.6 °F 40.2 °F 28.4 °F 53% 29.76 in 10.0 mi WSW 8.1 mph - N/A   Clear
3:15 PM 44.6 °F 39.7 °F 28.4 °F 53% 29.76 in 10.0 mi West 9.2 mph - N/A   Clear
3:35 PM 44.6 °F 40.2 °F 26.6 °F 49% 29.76 in 10.0 mi West 8.1 mph - N/A   Clear
3:55 PM 46.4 °F 41.9 °F 26.6 °F 46% 29.77 in 10.0 mi WSW 9.2 mph - N/A   Clear
4:15 PM 44.6 °F 40.7 °F 26.6 °F 49% 29.76 in 10.0 mi West 6.9 mph - N/A   Clear
4:35 PM 44.6 °F 41.4 °F 26.6 °F 49% 29.76 in 10.0 mi West 5.8 mph - N/A   Clear
4:55 PM 44.6 °F 40.7 °F 26.6 °F 49% 29.76 in 10.0 mi WSW 6.9 mph - N/A   Clear
5:15 PM 42.8 °F 40.1 °F 28.4 °F 57% 29.77 in 10.0 mi WSW 4.6 mph - N/A   Mostly Cloudy
5:35 PM 42.8 °F 41.1 °F 28.4 °F 57% 29.76 in 10.0 mi SSW 3.5 mph - N/A   Mostly Cloudy
5:55 PM 39.2 °F - 28.4 °F 65% 29.76 in 10.0 mi Calm Calm - N/A   Mostly Cloudy
6:15 PM 39.2 °F - 28.4 °F 65% 29.76 in 10.0 mi Calm Calm - N/A   Overcast
6:35 PM 39.2 °F 37.0 °F 28.4 °F 65% 29.76 in 10.0 mi South 3.5 mph - N/A   Mostly Cloudy
6:55 PM 37.4 °F 34.9 °F 28.4 °F 70% 29.76 in 10.0 mi SSE 3.5 mph - N/A   Scattered Clouds
7:15 PM 35.6 °F 31.7 °F 26.6 °F 70% 29.76 in 10.0 mi South 4.6 mph - N/A   Clear
7:35 PM 33.8 °F 30.8 °F 26.6 °F 75% 29.76 in 10.0 mi South 3.5 mph - N/A   Clear
7:55 PM 33.8 °F 30.8 °F 26.6 °F 75% 29.75 in 10.0 mi South 3.5 mph - N/A   Clear
8:15 PM 33.8 °F 30.8 °F 26.6 °F 75% 29.75 in 10.0 mi South 3.5 mph - N/A   Scattered Clouds
8:35 PM 33.8 °F - 26.6 °F 75% 29.74 in 10.0 mi Calm Calm - N/A   Scattered Clouds
8:55 PM 33.8 °F 30.8 °F 26.6 °F 75% 29.74 in 10.0 mi SSE 3.5 mph - N/A   Mostly Cloudy
9:15 PM 35.6 °F - 26.6 °F 70% 29.73 in 10.0 mi Calm Calm - N/A   Mostly Cloudy
9:35 PM 35.6 °F 31.7 °F 26.6 °F 70% 29.73 in 10.0 mi SSE 4.6 mph - N/A   Mostly Cloudy
9:55 PM 37.4 °F 34.9 °F 26.6 °F 65% 29.73 in 10.0 mi SSE 3.5 mph - N/A   Overcast
10:15 PM 35.6 °F 30.7 °F 26.6 °F 70% 29.72 in 10.0 mi SSW 5.8 mph - N/A   Overcast
10:35 PM 37.4 °F 31.4 °F 28.4 °F 70% 29.71 in 10.0 mi SSW 8.1 mph - N/A   Overcast
10:55 PM 37.4 °F 31.4 °F 28.4 °F 70% 29.71 in 10.0 mi SSW 8.1 mph - N/A   Overcast
11:15 PM 39.2 °F 32.5 °F 28.4 °F 65% 29.70 in 10.0 mi SSW 10.4 mph - N/A   Overcast
11:35 PM 39.2 °F 32.5 °F 28.4 °F 65% 29.69 in 10.0 mi SSW 10.4 mph - N/A   Overcast
11:55 PM 39.2 °F 32.5 °F 28.4 °F 65% 29.69 in 10.0 mi SSW 10.4 mph - N/A   Overcast